Location: Newark
(35.8833°N, 14.5000°E)
Time: 11:39:52
(UTC+00:00)

BEESAT - Pass Details

Date: 16 November 2019
Orbit: 700 x 709 km, 98.6° (Epoch: 06 December)

Event Time Altitude Azimuth Distance (km) Brightness Sun altitude
Rises 03:08:14 0° 147° (SSE) 3,078 ? -30.5°
Reaches altitude 10° 03:10:35 10° 140° (SE) 2,162 ? -30.0°
Maximum altitude 03:14:59 40° 72° (ENE) 1,029 ? -29.1°
Enters shadow 03:17:39 21° 15° (NNE) 1,543 ? -28.6°
